This is the latest recevied weather packets stored in our database for station/object KE1THD. If no packets are shown the sender has not sent any weather packets the latest 10 day(s).
| Time | Temp. | Humidity | Pressure | Rain* | Wind** | Luminosity | Snow |
|---|---|---|---|---|---|---|---|
| 1777934155 | 19.44° C | 65% | 999.6 hPa | 0 mm | - | 17 W/m² | - |
| 1777933850 | 19.44° C | 66% | 999.5 hPa | 0 mm | - | 19 W/m² | - |
| 1777933548 | 20.56° C | 61% | 999.2 hPa | 1.27 mm | - | 19 W/m² | - |
| 1777933244 | 21.11° C | 53% | 999.1 hPa | 1.27 mm | - | 24 W/m² | - |
| 1777932942 | 22.78° C | 48% | 999 hPa | 0 mm | - | 20 W/m² | - |
| 1777932638 | 23.33° C | 49% | 999.1 hPa | 0 mm | - | 12 W/m² | - |
| 1777932335 | 25.56° C | 39% | 998.9 hPa | 0 mm | - | 11 W/m² | - |
| 1777932032 | 26.11° C | 40% | 998.1 hPa | 0 mm | - | 34 W/m² | - |
| 1777931728 | 27.22° C | 37% | 998.1 hPa | 0 mm | - | 48 W/m² | - |
| 1777931426 | 27.78° C | 36% | 997.9 hPa | 0 mm | - | 77 W/m² | - |
| 1777931122 | 28.33° C | 34% | 997.9 hPa | 0 mm | - | 452 W/m² | - |
| 1777930818 | 27.22° C | 34% | 998.1 hPa | 0 mm | - | 453 W/m² | - |
| 1777930515 | 27.22° C | 35% | 998.1 hPa | 0 mm | - | 495 W/m² | - |
| 1777930212 | 26.67° C | 35% | 998.2 hPa | 0 mm | - | 570 W/m² | - |
| 1777929908 | 25.56° C | 37% | 998.3 hPa | 0 mm | - | 603 W/m² | - |
| 1777929605 | 25.56° C | 38% | 998.6 hPa | 0 mm | - | 210 W/m² | - |
| 1777929302 | 25° C | 40% | 998.5 hPa | 0 mm | - | 260 W/m² | - |
| 1777928999 | 25° C | 49% | 998.5 hPa | 0 mm | - | 230 W/m² | - |
| 1777928696 | 23.89° C | 46% | 998.6 hPa | 0 mm | - | 236 W/m² | - |
| 1777928393 | 23.33° C | 51% | 998.7 hPa | 1.78 mm | - | 218 W/m² | - |
| 1777928090 | 26.67° C | 48% | 998.9 hPa | 1.78 mm | - | 266 W/m² | - |
| 1777927788 | 26.67° C | 33% | 998.7 hPa | 0 mm | - | 115 W/m² | - |
| 1777927486 | 27.22° C | 33% | 998.4 hPa | 0 mm | - | 78 W/m² | - |
| 1777927186 | 27.78° C | 32% | 998.5 hPa | 0 mm | - | 180 W/m² | - |
| 1777926883 | 28.33° C | 30% | 998.5 hPa | 0 mm | - | 291 W/m² | - |
* Rain latest hour (hover to see other rain measurements)
** Current wind speed in m/s (hover to see current wind gust speed)